IU2GZQ-13 Weather Reports


time (UTC)temp
F
wind
direction
speed
knots
gust
knots
rain 1hr
in
rain 24hr
in
rain mn
in
humidity
%
barometer
mb
20260902185023 81 0.0 0.0 0.00 0.00 0.00 59 1017.8
20260902184021 82 0.0 0.0 0.00 0.00 0.00 56 1017.7
20260902183017 82 0.0 0.0 0.00 0.00 0.00 56 1017.5
20260902182035 82 241 0.0 1.7 0.00 0.00 0.00 55 1017.5
20260902181032 83 241 0.0 0.9 0.00 0.00 0.00 55 1017.5
20260902180129 84 0.0 0.0 0.00 0.00 0.00 53 1017.3
20260902175106 84 274 0.9 1.7 0.00 0.00 0.00 53 1017.2
20260902174104 85 287 0.0 1.7 0.00 0.00 0.00 51 1017.1
20260902173123 85 294 0.0 0.9 0.00 0.00 0.00 50 1017.3
20260902172132 86 262 1.7 6.1 0.00 0.00 0.00 50 1017.2
20260902171051 87 271 0.9 2.6 0.00 0.00 0.00 49 1017.2
20260902170026 87 268 0.9 2.6 0.00 0.00 0.00 49 1017.2
20260902165023 88 240 0.9 3.5 0.00 0.00 0.00 48 1017.2
20260902164020 88 263 1.7 2.6 0.00 0.00 0.00 47 1017.0
20260902163057 88 258 2.6 5.2 0.00 0.00 0.00 47 1017.1
20260902162037 89 271 1.7 6.1 0.00 0.00 0.00 46 1017.2
20260902161131 89 264 1.7 3.5 0.00 0.00 0.00 45 1017.1
20260902160129 90 267 2.6 2.6 0.00 0.00 0.00 45 1017.2
20260902155040 89 247 0.9 5.2 0.00 0.00 0.00 47 1017.3
20260902154043 89 259 1.7 3.5 0.00 0.00 0.00 46 1017.2
20260902153139 90 248 2.6 5.2 0.00 0.00 0.00 46 1017.3
20260902152201 90 265 1.7 5.2 0.00 0.00 0.00 45 1017.2
20260902151036 90 271 3.5 5.2 0.00 0.00 0.00 45 1017.5
20260902150031 91 233 2.6 5.2 0.00 0.00 0.00 45 1017.7
20260902145042 91 239 2.6 5.2 0.00 0.00 0.00 46 1017.7
20260902144020 91 245 2.6 5.2 0.00 0.00 0.00 45 1017.5
20260902143017 91 264 1.7 7.0 0.00 0.00 0.00 46 1017.8
20260902142034 91 244 2.6 7.0 0.00 0.00 0.00 46 1018.1
20260902141051 91 212 1.7 5.2 0.00 0.00 0.00 47 1018.0
20260902140209 91 239 2.6 7.0 0.00 0.00 0.00 47 1018.1
20260902135028 90 243 0.9 2.6 0.00 0.00 0.00 47 1018.2
20260902134046 90 249 0.9 3.5 0.00 0.00 0.00 48 1018.2
20260902133123 90 301 1.7 5.2 0.00 0.00 0.00 47 1018.4
20260902132020 91 169 1.7 5.2 0.00 0.00 0.00 47 1018.6
20260902131046 90 240 1.7 3.5 0.00 0.00 0.00 48 1018.7
20260902130050 90 340 0.9 2.6 0.00 0.00 0.00 48 1018.7
20260902125022 90 221 0.9 2.6 0.00 0.00 0.00 48 1018.9
20260902124054 90 247 3.5 6.1 0.00 0.00 0.00 49 1019.1
20260902123132 89 82 0.9 6.1 0.00 0.00 0.00 50 1018.9
20260902122151 90 220 2.6 7.0 0.00 0.00 0.00 49 1019.1
20260902121106 88 209 0.9 5.2 0.00 0.00 0.00 51 1019.3
20260902120202 88 246 0.9 3.5 0.00 0.00 0.00 52 1019.2
20260902115715 88 328 1.7 3.5 0.00 0.00 0.00 51 1019.2
20260902114532 89 277 2.6 6.1 0.00 0.00 0.00 50 1019.5
20260902112520 87 243 0.9 2.6 0.00 0.00 0.00 52 1019.5
20260902111653 87 287 1.7 5.2 0.00 0.00 0.00 51 1019.7
20260902110554 88 204 1.7 3.5 0.00 0.00 0.00 50 1019.7
20260902105533 88 107 1.7 3.5 0.00 0.00 0.00 50 1019.8
20260902104544 87 230 0.9 3.5 0.00 0.00 0.00 51 1020.0
20260902103617 88 145 0.0 2.6 0.00 0.00 0.00 48 1020.1
20260902102534 87 119 0.9 3.5 0.00 0.00 0.00 51 1020.2
20260902101524 86 56 0.9 1.7 0.00 0.00 0.00 52 1020.2
20260902100521 86 344 0.9 2.6 0.00 0.00 0.00 51 1020.4
20260902095538 85 89 0.9 2.6 0.00 0.00 0.00 52 1020.5
20260902094536 85 86 0.0 2.6 0.00 0.00 0.00 51 1020.6
20260902093554 85 108 0.9 2.6 0.00 0.00 0.00 52 1020.5
20260902092650 84 107 2.6 5.2 0.00 0.00 0.00 53 1020.6
20260902091628 84 41 0.0 0.9 0.00 0.00 0.00 55 1020.6
20260902090604 83 89 0.0 0.9 0.00 0.00 0.00 55 1020.5
20260902085622 82 97 0.0 0.9 0.00 0.00 0.00 56 1020.6
20260902084613 82 98 0.9 1.7 0.00 0.00 0.00 57 1020.6
20260902083710 82 91 0.0 2.6 0.00 0.00 0.00 56 1020.7
20260902082627 83 99 0.9 2.6 0.00 0.00 0.00 54 1020.5
20260902081519 82 90 0.9 1.7 0.00 0.00 0.00 57 1020.6
20260902080048 82 0.0 0.0 0.00 0.00 0.00 57 1020.4
20260902075027 80 0.0 0.0 0.00 0.00 0.00 60 1020.4
20260902074024 80 10 0.9 1.7 0.00 0.00 0.00 61 1020.3
20260902073040 80 0.0 0.0 0.00 0.00 0.00 62 1020.3
20260902072017 80 0.0 0.0 0.00 0.00 0.00 66 1020.4
20260902071054 78 0.0 0.0 0.00 0.00 0.00 67 1020.1
20260902070026 77 0.0 0.0 0.00 0.00 0.00 69 1020.4
20260902065044 76 0.0 0.0 0.00 0.00 0.00 71 1020.3
20260902064041 75 0.0 0.0 0.00 0.00 0.00 76 1020.2
20260902063153 75 0.0 0.0 0.00 0.00 0.00 76 1020.3
20260902062030 74 0.0 0.0 0.00 0.00 0.00 78 1020.1
20260902061209 73 0.0 0.0 0.00 0.00 0.00 79 1020.0
20260902060519 71 98 0.0 0.9 0.00 0.00 0.00 80 1020.1
20260902055535 70 0.0 0.0 0.00 0.00 0.00 83 1020.1
20260902054533 69 0.0 0.0 0.00 0.00 0.00 84 1019.9
20260902053710 68 0.0 0.0 0.00 0.00 0.00 84 1019.8
20260902052527 68 0.0 0.0 0.00 0.00 0.00 85 1019.6
20260902051518 67 0.0 0.0 0.00 0.00 0.00 86 1019.6
20260902050637 67 0.0 0.0 0.00 0.00 0.00 87 1019.3
20260902045536 67 0.0 0.0 0.00 0.00 0.00 87 1019.3
20260902044543 67 0.0 0.0 0.00 0.00 0.00 87 1019.4
20260902043521 67 0.0 0.0 0.00 0.00 0.00 87 1019.4
20260902042557 67 0.0 0.0 0.00 0.00 0.00 86 1019.3
20260902041529 67 0.0 0.0 0.00 0.00 0.00 85 1019.3
20260902040642 67 0.0 0.0 0.00 0.00 0.00 85 1019.3
20260902035619 68 0.0 0.0 0.00 0.00 0.00 85 1019.3
20260902034536 68 0.0 0.0 0.00 0.00 0.00 84 1019.3
20260902033533 68 0.0 0.0 0.00 0.00 0.00 83 1019.2
20260902032525 68 0.0 0.0 0.00 0.00 0.00 82 1019.2
20260902031615 69 0.0 0.0 0.00 0.00 0.00 81 1019.3
20260902030521 69 0.0 0.0 0.00 0.00 0.00 82 1019.3
20260902025619 69 0.0 0.0 0.00 0.00 0.00 82 1019.2
20260902024717 69 0.0 0.0 0.00 0.00 0.00 82 1019.2
20260902023653 69 0.0 0.0 0.00 0.00 0.00 81 1019.1
20260902022651 69 0.0 0.0 0.00 0.00 0.00 81 1019.3
20260902021628 69 0.0 0.0 0.00 0.00 0.00 83 1019.1
20260902020625 69 0.0 0.0 0.00 0.00 0.00 83 1019.1
20260902015535 69 0.0 0.0 0.00 0.00 0.00 82 1019.1
20260902014631 69 0.0 0.0 0.00 0.00 0.00 82 1019.2
20260902013548 69 0.0 0.0 0.00 0.00 0.00 82 1019.1
20260902012525 69 0.0 0.0 0.00 0.00 0.00 83 1019.1
20260902010538 70 0.0 0.0 0.00 0.00 0.00 82 1019.2
20260902005618 70 0.0 0.0 0.00 0.00 0.00 82 1019.3
20260902004532 70 0.0 0.0 0.00 0.00 0.00 81 1019.2
20260902003608 70 0.0 0.0 0.00 0.00 0.00 81 1019.2
20260902002526 70 0.0 0.0 0.00 0.00 0.00 80 1019.0
20260902001542 71 0.0 0.0 0.00 0.00 0.00 79 1019.1
20260902000517 71 0.0 0.0 0.00 0.00 0.00 78 1019.1
20260901235535 72 0.0 0.0 0.00 0.00 0.00 77 1019.2
20260901234531 72 0.0 0.0 0.00 0.00 0.00 75 1019.1
20260901233648 73 0.0 0.0 0.00 0.00 0.00 74 1019.0
20260901232526 73 17 0.0 0.9 0.00 0.00 0.00 74 1019.1
20260901231521 73 0.0 0.0 0.00 0.00 0.00 74 1019.1
20260901230519 74 0.0 0.0 0.00 0.00 0.00 73 1019.3
20260901225534 74 0.0 0.0 0.00 0.00 0.00 72 1019.1
20260901224531 74 1 0.9 1.7 0.00 0.00 0.00 72 1019.0
20260901223530 74 356 0.0 1.7 0.00 0.00 0.00 71 1019.0
20260901222527 75 0.0 0.0 0.00 0.00 0.00 71 1019.0
20260901221521 75 358 0.9 2.6 0.00 0.00 0.00 70 1019.0
20260901220517 75 0.0 0.0 0.00 0.00 0.00 70 1019.0
20260901215554 76 16 0.0 0.9 0.00 0.00 0.00 69 1019.0
20260901214531 76 0.0 0.0 0.00 0.00 0.00 68 1019.0
20260901213603 76 0.0 0.0 0.00 0.00 0.00 68 1018.9
20260901212519 77 0.0 0.0 0.00 0.00 0.00 67 1019.0
20260901211556 77 0.0 0.0 0.00 0.00 0.00 67 1019.1
20260901210653 77 0.0 0.0 0.00 0.00 0.00 67 1019.3
20260901205530 77 0.0 0.0 0.00 0.00 0.00 68 1019.3
20260901204708 76 24 0.0 0.9 0.00 0.00 0.00 68 1019.2
20260901203524 76 0.0 0.0 0.00 0.00 0.00 68 1019.1
20260901201638 76 0.0 0.0 0.00 0.00 0.00 69 1019.0
20260901200535 77 22 0.0 0.9 0.00 0.00 0.00 69 1019.0
20260901195553 77 31 0.0 0.9 0.00 0.00 0.00 68 1019.1
20260901194549 78 0.0 0.0 0.00 0.00 0.00 68 1019.0
20260901193626 78 0.0 0.0 0.00 0.00 0.00 67 1019.0
20260901192543 79 86 1.7 2.6 0.00 0.00 0.00 66 1018.9
20260901191520 79 78 0.9 1.7 0.00 0.00 0.00 65 1018.9
20260901190557 79 89 0.9 1.7 0.00 0.00 0.00 66 1018.7
20260901185553 79 80 0.9 1.7 0.00 0.00 0.00 66 1018.4